When you browse on this site, cookies collect data to enhance your experience and personalize the content and advertising you see.
Visit our Privacy Policy to learn more. By continuing to use the site, you agree to this use of cookies and data.
  • In Latvia
  • List of Countries
  • For 7 days
  • Water Temperature
  • Satellite Maps
  • Weather Map
  • Weather Widgets
  • user-avatar
    Login

    Hourly Weather Sovetskiy

    Today, 15 December, Saturday

    Time Temperature Precipitation Wind Pressure Humidity
    00:00 +3°C° 0.1 mm 2 mps 751 mmHg 80%
    01:00 +3°C° 0 mm 2 mps 751 mmHg 80%
    02:00 +3°C° 0 mm 2 mps 751 mmHg 79%
    03:00 +3°C° 0 mm 1 mps 751 mmHg 80%
    04:00 +3°C° 0 mm 1 mps 751 mmHg 79%
    05:00 +4°C° 0 mm 1 mps 752 mmHg 77%
    06:00 +4°C° 0 mm 1 mps 752 mmHg 76%
    07:00 +4°C° 0 mm 1 mps 752 mmHg 75%
    08:00 +4°C° 0 mm 1 mps 752 mmHg 74%
    09:00 +5°C° 0 mm 1 mps 752 mmHg 73%
    10:00 +6°C° 0 mm 1 mps 752 mmHg 71%
    11:00 +6°C° 0 mm 1 mps 752 mmHg 69%
    12:00 +7°C° 0 mm 1 mps 752 mmHg 66%
    13:00 +7°C° 0.1 mm 1 mps 752 mmHg 68%
    14:00 +7°C° 0.1 mm 1 mps 751 mmHg 69%
    15:00 +7°C° 0.1 mm 1 mps 751 mmHg 71%
    16:00 +6°C° 0.2 mm 1 mps 751 mmHg 75%
    17:00 +6°C° 0.2 mm 1 mps 751 mmHg 79%
    18:00 +5°C° 0.2 mm 1 mps 751 mmHg 82%
    19:00 +5°C° 0.3 mm 1 mps 751 mmHg 84%
    20:00 +5°C° 0.3 mm 1 mps 752 mmHg 85%
    21:00 +5°C° 0.3 mm 1 mps 752 mmHg 86%
    22:00 +5°C° 0.5 mm 1 mps 752 mmHg 88%
    23:00 +3°C° 0.5 mm 2 mps 752 mmHg 90%

    Tomorrow, 16 December, Sunday

    Time Temperature Precipitation Wind Pressure Humidity
    00:00 +3°C° 0.5 mm 2 mps 752 mmHg 91%
    01:00 +3°C° 0.2 mm 2 mps 752 mmHg 92%
    02:00 +3°C° 0.2 mm 2 mps 752 mmHg 92%
    03:00 +2°C° 0.2 mm 2 mps 752 mmHg 93%
    04:00 +2°C° 0.1 mm 2 mps 752 mmHg 93%
    05:00 +2°C° 0.1 mm 2 mps 752 mmHg 93%
    06:00 +2°C° 0.1 mm 2 mps 752 mmHg 93%
    07:00 +1°C° 0 mm 3 mps 752 mmHg 92%
    08:00 +1°C° 0 mm 3 mps 752 mmHg 91%
    09:00 +1°C° 0 mm 3 mps 752 mmHg 89%
    10:00 +1°C° 0 mm 3 mps 752 mmHg 87%
    11:00 +2°C° 0 mm 3 mps 752 mmHg 84%
    12:00 +3°C° 0 mm 3 mps 752 mmHg 81%
    13:00 +3°C° 0 mm 4 mps 752 mmHg 81%
    14:00 +3°C° 0 mm 4 mps 752 mmHg 81%
    15:00 +3°C° 0 mm 4 mps 751 mmHg 81%
    16:00 +1°C° 0 mm 4 mps 751 mmHg 83%
    17:00 +1°C° 0 mm 4 mps 751 mmHg 84%
    18:00 0°C° 0 mm 4 mps 751 mmHg 86%
    19:00 0°C° 0 mm 4 mps 751 mmHg 86%
    20:00 0°C° 0 mm 4 mps 751 mmHg 86%
    21:00 -1°C° 0 mm 4 mps 751 mmHg 87%
    22:00 -1°C° 0 mm 4 mps 751 mmHg 86%
    23:00 -1°C° 0 mm 4 mps 750 mmHg 85%

    Day after tomorrow, 17 December, Monday

    Time Temperature Precipitation Wind Pressure Humidity
    00:00 -1°C° 0 mm 4 mps 750 mmHg 85%
    01:00 -1°C° 0 mm 4 mps 750 mmHg 85%
    02:00 -1°C° 0 mm 4 mps 750 mmHg 84%
    03:00 -1°C° 0 mm 4 mps 750 mmHg 84%
    04:00 -1°C° 0 mm 4 mps 750 mmHg 84%
    05:00 -1°C° 0 mm 4 mps 749 mmHg 83%
    06:00 -1°C° 0 mm 4 mps 749 mmHg 83%
    07:00 -1°C° 0 mm 4 mps 749 mmHg 81%
    08:00 -1°C° 0 mm 4 mps 749 mmHg 80%
    09:00 -1°C° 0 mm 4 mps 749 mmHg 78%
    10:00 0°C° 0 mm 4 mps 749 mmHg 75%
    11:00 +3°C° 0 mm 4 mps 749 mmHg 71%
    12:00 +4°C° 0 mm 4 mps 748 mmHg 67%
    13:00 +4°C° 0 mm 4 mps 748 mmHg 68%
    14:00 +4°C° 0 mm 4 mps 748 mmHg 69%
    15:00 +4°C° 0 mm 4 mps 748 mmHg 70%
    16:00 +3°C° 0 mm 4 mps 748 mmHg 73%
    17:00 +1°C° 0 mm 4 mps 748 mmHg 77%
    18:00 0°C° 0 mm 4 mps 748 mmHg 80%
    19:00 -1°C° 0 mm 4 mps 748 mmHg 80%
    20:00 -1°C° 0 mm 4 mps 748 mmHg 81%
    21:00 -1°C° 0 mm 4 mps 748 mmHg 81%
    22:00 -1°C° 0 mm 4 mps 748 mmHg 81%
    23:00 0°C° 0 mm 3 mps 748 mmHg 81%

    18 December, Tuesday

    Time Temperature Precipitation Wind Pressure Humidity
    00:00 0°C° 0 mm 3 mps 748 mmHg 81%
    01:00 0°C° 0 mm 3 mps 748 mmHg 82%
    02:00 0°C° 0 mm 3 mps 748 mmHg 82%
    03:00 0°C° 0 mm 3 mps 748 mmHg 82%
    04:00 0°C° 0 mm 3 mps 748 mmHg 82%
    05:00 0°C° 0 mm 3 mps 748 mmHg 83%
    06:00 0°C° 0 mm 3 mps 748 mmHg 83%
    07:00 0°C° 0 mm 3 mps 748 mmHg 82%
    08:00 +1°C° 0 mm 3 mps 748 mmHg 81%
    09:00 +1°C° 0 mm 3 mps 748 mmHg 80%
    10:00 +2°C° 0 mm 3 mps 748 mmHg 76%
    11:00 +4°C° 0 mm 3 mps 748 mmHg 71%
    12:00 +5°C° 0 mm 3 mps 748 mmHg 67%
    13:00 +5°C° 0 mm 3 mps 748 mmHg 68%
    14:00 +6°C° 0 mm 2 mps 748 mmHg 70%
    15:00 +6°C° 0 mm 2 mps 748 mmHg 71%
    16:00 +5°C° 0 mm 2 mps 748 mmHg 76%
    17:00 +4°C° 0 mm 2 mps 748 mmHg 81%
    18:00 +3°C° 0 mm 2 mps 749 mmHg 86%
    19:00 +3°C° 0 mm 2 mps 749 mmHg 87%
    20:00 +2°C° 0 mm 2 mps 749 mmHg 88%
    21:00 +2°C° 0 mm 2 mps 749 mmHg 88%
    22:00 +2°C° 0 mm 2 mps 749 mmHg 89%
    23:00 +2°C° 0 mm 2 mps 749 mmHg 89%

    19 December, Wednesday

    Time Temperature Precipitation Wind Pressure Humidity
    00:00 +2°C° 0 mm 2 mps 749 mmHg 89%
    01:00 +2°C° 0 mm 2 mps 749 mmHg 89%
    02:00 +2°C° 0 mm 2 mps 749 mmHg 89%
    03:00 +2°C° 0 mm 2 mps 749 mmHg 89%
    04:00 +2°C° 0 mm 2 mps 749 mmHg 89%
    05:00 +2°C° 0 mm 2 mps 748 mmHg 88%
    06:00 +2°C° 0 mm 2 mps 748 mmHg 88%
    07:00 +2°C° 0 mm 2 mps 748 mmHg 87%
    08:00 +3°C° 0 mm 2 mps 748 mmHg 85%
    09:00 +2°C° 0 mm 3 mps 748 mmHg 84%
    10:00 +3°C° 0 mm 3 mps 748 mmHg 79%
    11:00 +5°C° 0 mm 3 mps 748 mmHg 74%
    12:00 +7°C° 0 mm 3 mps 748 mmHg 69%
    13:00 +7°C° 0 mm 3 mps 747 mmHg 69%
    14:00 +7°C° 0 mm 4 mps 747 mmHg 70%
    15:00 +7°C° 0 mm 4 mps 747 mmHg 70%
    16:00 +6°C° 0 mm 4 mps 747 mmHg 74%
    17:00 +4°C° 0 mm 4 mps 747 mmHg 78%
    18:00 +3°C° 0 mm 4 mps 747 mmHg 82%
    19:00 +3°C° 0 mm 4 mps 747 mmHg 82%
    20:00 +3°C° 0 mm 4 mps 747 mmHg 82%
    21:00 +3°C° 0 mm 4 mps 746 mmHg 82%
    22:00 +3°C° 0 mm 4 mps 746 mmHg 82%
    23:00 +3°C° 0 mm 4 mps 746 mmHg 81%

    20 December, Thursday

    Time Temperature Precipitation Wind Pressure Humidity
    00:00 +3°C° 0 mm 4 mps 746 mmHg 81%
    01:00 +3°C° 0.1 mm 4 mps 746 mmHg 81%
    02:00 +3°C° 0.1 mm 4 mps 746 mmHg 81%
    03:00 +3°C° 0.1 mm 4 mps 746 mmHg 82%
    04:00 +3°C° 0.1 mm 4 mps 746 mmHg 82%
    05:00 +3°C° 0.1 mm 4 mps 746 mmHg 82%
    06:00 +3°C° 0.1 mm 4 mps 746 mmHg 82%
    07:00 +3°C° 0.1 mm 4 mps 746 mmHg 82%
    08:00 +3°C° 0.1 mm 4 mps 746 mmHg 82%
    09:00 +4°C° 0.1 mm 3 mps 747 mmHg 82%
    10:00 +4°C° 0.2 mm 3 mps 747 mmHg 80%
    11:00 +5°C° 0.2 mm 3 mps 747 mmHg 78%
    12:00 +5°C° 0.2 mm 3 mps 747 mmHg 76%
    13:00 +5°C° 0.2 mm 3 mps 747 mmHg 76%
    14:00 +7°C° 0.2 mm 3 mps 747 mmHg 76%
    15:00 +7°C° 0.2 mm 3 mps 747 mmHg 76%
    16:00 +5°C° 0.1 mm 3 mps 747 mmHg 79%
    17:00 +5°C° 0.1 mm 3 mps 748 mmHg 82%
    18:00 +4°C° 0.1 mm 3 mps 748 mmHg 84%
    19:00 +4°C° 0.1 mm 3 mps 748 mmHg 85%
    20:00 +4°C° 0.1 mm 3 mps 749 mmHg 85%
    21:00 +4°C° 0.1 mm 3 mps 749 mmHg 86%
    22:00 +4°C° 0.1 mm 3 mps 749 mmHg 86%
    23:00 +4°C° 0.1 mm 3 mps 749 mmHg 87%
    Show more